x

St. Joseph, Mi (sjom4) Weather Station

9:00am - Thu 30th Mar 2017 All times are CDT. -5 hours from GMT.

  • Wind
    8mph, 16mph gusts
  • Air Temp 42°f
  • Sea Pressure 1009.1mb
  • St. Joseph, Mi
  • St. Joseph, Mi

More Historic Weather Station data

Upgrade to MSW Pro to gain access to the past 30 days of data for over 8000 Wavebouys and Weather Stations around the globe.

Join Pro

Comparision Forecast

View Surf forecast
   
Thu 03/30 9:00am 8 16 mph 1009.1mb 42f
8:50am 7 13 mph 1010.2mb 42f
8:40am 3 16 mph 1010.2mb 42f
8:30am 5 11 mph 1010.5mb 42f
8:20am 7 14 mph 1010.5mb 42f
8:10am 6 14 mph 1011.2mb 41f
8:00am 5 13 mph 1012.2mb 41f
7:50am 7 14 mph 1011.5mb 41f
7:40am 3 15 mph 1011.9mb 41f
7:30am 7 14 mph 1012.5mb 42f
7:20am 7 14 mph 1012.5mb 42f
7:10am 6 14 mph 1012.9mb 44f
7:00am 6 15 mph 1012.9mb 44f
6:50am 7 14 mph 1012.5mb 44f
6:40am 3 14 mph 1012.5mb 44f
6:30am 5 14 mph 1012.2mb 44f
6:20am 2 9 mph 1012.2mb 43f
6:10am 5 10 mph 1011.5mb 42f
6:00am 5 13 mph 1012.2mb 42f
5:50am 5 14 mph 1011.9mb 41f
5:40am 5 15 mph 1011.2mb 41f
5:30am 7 17 mph 1011.5mb 41f
5:20am 7 14 mph 1012.9mb 41f
5:10am 6 11 mph 1012.9mb 41f
5:00am 6 13 mph 1013.2mb 40f
4:50am 2 13 mph 1014.2mb 41f
4:40am 3 13 mph 1014.6mb 41f
4:30am 3 11 mph 1013.9mb 41f
4:20am 6 13 mph 1013.2mb 41f
4:10am 5 17 mph 1013.2mb 41f
4:00am 6 15 mph 1013.5mb 41f
3:50am 5 14 mph 1014.2mb 42f
3:40am 5 11 mph 1013.9mb 42f
3:30am 2 9 mph 1014.9mb 42f
3:20am 3 9 mph 1014.6mb 42f
3:10am 5 9 mph 1015.6mb 43f
Wed 03/29 9:00am 3 7 mph 1025.1mb 44f
8:50am 2 9 mph 1024.7mb 43f
8:40am 3 9 mph 1024.7mb 43f
8:30am 3 6 mph 1025.1mb 41f
8:20am 1 9 mph 1024.7mb 40f
8:10am 5 8 mph 1024.4mb 39f
8:00am 2 6 mph 1024.4mb 39f
7:50am 1 5 mph 1025.4mb 38f
7:40am  -  5 mph 1025.7mb 36f
7:30am 1 3 mph 1025.4mb 35f
7:20am  -  3 mph 1025.1mb 35f
7:10am 1 2 mph 1024.4mb 34f
7:00am 2 3 mph 1024.4mb 34f
6:50am 2 3 mph 1024.7mb 33f
6:40am 2 3 mph 1025.1mb 33f
6:30am 2 3 mph 1024.7mb 33f
6:20am 2 3 mph 1024.4mb 34f
6:10am 2 3 mph 1024mb 34f
6:00am 2 3 mph 1023.7mb 34f
5:50am 2 3 mph 1024.4mb 33f
5:40am 2 3 mph 1024.7mb 34f
5:30am 1 2 mph 1024.7mb 34f
5:20am 1 6 mph 1024.7mb 34f
5:10am 2
mph
1023.7mb 34f
5:00am 1 2 mph 1024.4mb 34f
4:50am  -  3 mph 1024.7mb 34f
4:40am 1 3 mph 1024.7mb 34f
4:30am 1 2 mph 1024mb 34f
4:20am 2 3 mph 1024.4mb 34f
4:10am 1 2 mph 1024.7mb 34f
4:00am 1 3 mph 1024.4mb 34f
3:50am 1 5 mph 1023.4mb 33f
3:40am 2 3 mph 1023.7mb 34f
3:30am 1 3 mph 1024.4mb 33f
3:20am 2 3 mph 1024.4mb 33f
3:10am  -  1 mph 1023.7mb 34f
3:00am  -  2 mph 1023.4mb 34f
2:50am  -  2 mph 1023.7mb 34f
2:40am  -  5 mph 1024.4mb 34f
2:30am 2 5 mph 1024.7mb 34f
2:20am 1 3 mph 1024.4mb 34f
2:10am 2 5 mph 1024mb 34f
2:00am 2 5 mph 1024mb 34f
1:50am 1 3 mph 1024.7mb 34f
1:40am 2 3 mph 1024.4mb 34f
1:30am 2 3 mph 1023.7mb 34f
1:20am 2 3 mph 1023.7mb 34f
1:10am 1 3 mph 1024.4mb 34f
1:00am 1 3 mph 1024.4mb 34f
12:50am  -  3 mph 1024mb 34f
12:40am 1 5 mph 1023.7mb 34f
12:30am 3 6 mph 1024.7mb 34f
12:20am 3 7 mph 1024.4mb 34f
12:10am 3 6 mph 1023.7mb 34f
12:00am 5 6 mph 1023.7mb 34f
Tue 03/28 11:50pm 3 6 mph 1024.7mb 34f
11:40pm 5 8 mph 1024.4mb 34f
11:30pm 6 8 mph 1023.7mb 34f
11:20pm 3 8 mph 1023.7mb 35f
11:10pm 5 9 mph 1024.4mb 35f
11:00pm 6 10 mph 1024.4mb 35f
10:50pm 5 9 mph 1024.4mb 35f
10:40pm 5 8 mph 1023.7mb 35f
10:30pm 7 9 mph 1024mb 35f
10:20pm 5 10 mph 1024.4mb 35f
10:10pm 6 8 mph 1024mb 35f
10:00pm 6 9 mph 1023.4mb 35f
9:50pm 5 9 mph 1024mb 35f
9:40pm 7 10 mph 1024mb 35f
9:30pm 8 11 mph 1023.4mb 35f
9:20pm 5 10 mph 1023mb 35f
9:10pm 6 9 mph 1023.7mb 35f
9:00pm 7 9 mph 1023.7mb 35f
8:50pm 5 9 mph 1023.4mb 35f
8:40pm 6 9 mph 1023mb 35f
8:30pm 6 7 mph 1023.4mb 36f
8:20pm 6 9 mph 1023mb 36f
8:10pm 6 11 mph 1022.4mb 37f
8:00pm 6 9 mph 1022.7mb 38f
7:50pm 5 10 mph 1023mb 38f
7:40pm 8 11 mph 1022.4mb 38f
7:30pm 7 11 mph 1021.7mb 37f
7:20pm 8 13 mph 1022.4mb 38f
7:10pm 9 15 mph 1022.4mb 38f
10:00am 9 11 mph 1019.3mb 39f
9:50am 8 10 mph 1020mb 39f
9:40am 8 11 mph 1019.3mb 39f
9:30am 9 13 mph 1018.6mb 39f
9:20am 9 13 mph 1019.3mb 39f
9:10am 9 15 mph 1019.3mb 39f
9:00am 9 15 mph 1018.6mb 38f
8:50am 11 15 mph 1018.6mb 38f
8:40am 11 15 mph 1019mb 38f
8:30am 11 15 mph 1018.3mb 38f
8:20am 10 15 mph 1018.3mb 38f
8:10am 10 15 mph 1018.6mb 38f
8:00am 11 14 mph 1017.9mb 38f
7:50am 10 14 mph 1018.3mb 38f
7:40am 11 14 mph 1018.6mb 38f
7:30am 11 14 mph 1017.9mb 38f
7:20am 9 14 mph 1018.3mb 38f
7:10am 11 16 mph 1018.3mb 38f
7:00am 13 14 mph 1017.6mb 38f
6:50am 10 14 mph 1017.6mb 38f
6:40am 8 14 mph 1017.9mb 38f
6:30am 10 13 mph 1016.9mb 38f
6:20am 9 13 mph 1017.3mb 38f
6:10am 8 13 mph 1017.6mb 38f
6:00am 9 13 mph 1016.6mb 38f
5:50am 8 13 mph 1016.9mb 38f
5:40am 10 14 mph 1016.9mb 38f
5:30am 10 14 mph 1015.9mb 38f
5:20am 10 14 mph 1016.3mb 38f
5:10am 10 15 mph 1016.6mb 38f
5:00am 11 15 mph 1015.9mb 38f
4:50am 13 15 mph 1015.6mb 38f
4:40am 11 15 mph 1016.3mb 38f
4:30am 10 14 mph 1015.9mb 38f
4:20am 10 15 mph 1015.2mb 38f
4:10am 11 15 mph 1015.9mb 38f
4:00am 11 15 mph 1015.9mb 38f
3:50am 10 14 mph 1015.2mb 38f
3:40am 10 15 mph 1015.6mb 39f
3:30am 10 14 mph 1015.9mb 39f
3:20am 10 14 mph 1015.2mb 39f
3:10am 9 11 mph 1014.9mb 39f
3:00am 8 10 mph 1015.6mb 39f
2:50am 6 10 mph 1015.6mb 39f
2:40am 8 11 mph 1014.9mb 39f
2:30am 9 11 mph 1015.6mb 39f
2:20am 8 11 mph 1015.6mb 39f
2:10am 8 11 mph 1015.2mb 39f
2:00am 9 11 mph 1015.6mb 39f
1:50am 7 9 mph 1015.9mb 39f
1:40am 5 8 mph 1014.9mb 38f
1:30am 6 8 mph 1015.2mb 38f
1:20am 5 7 mph 1015.6mb 38f
1:10am 7 8 mph 1014.9mb 38f
1:00am 6 8 mph 1015.2mb 38f
12:50am 5 9 mph 1015.6mb 38f
12:40am 6 9 mph 1014.6mb 38f
12:30am 7 9 mph 1015.2mb 38f
12:20am 7 10 mph 1015.6mb 38f
12:10am 8 10 mph 1015.2mb 38f
12:00am 8 10 mph 1014.9mb 38f
Mon 03/27 11:50pm 9 11 mph 1015.6mb 38f
11:40pm 8 10 mph 1015.2mb 38f
11:30pm 5 10 mph 1014.6mb 39f
11:20pm 6 8 mph 1015.2mb 39f
11:10pm 5 8 mph 1015.6mb 39f
11:00pm 5 10 mph 1015.2mb 39f
10:50pm 6 9 mph 1014.6mb 39f
10:40pm 6 10 mph 1015.2mb 39f
10:30pm 6 8 mph 1015.6mb 39f
10:20pm 6 11 mph 1014.9mb 39f
10:10pm 7 13 mph 1014.6mb 39f
10:00pm 8 15 mph 1014.9mb 39f
9:50pm 8 14 mph 1015.2mb 39f
9:40pm 9 17 mph 1014.9mb 39f
9:30pm 8 14 mph 1014.6mb 39f
9:20pm 10 16 mph 1015.2mb 39f
9:10pm 9 15 mph 1014.6mb 39f
9:00pm 9 14 mph 1014.2mb 39f
8:50pm 6 15 mph 1014.9mb 39f
8:40pm 7 15 mph 1014.6mb 39f
8:30pm 9 17 mph 1013.9mb 39f
8:20pm 10 16 mph 1014.6mb 39f
8:10pm 11 16 mph 1014.6mb 39f
8:00pm 9 15 mph 1013.5mb 39f
7:50pm 9 15 mph 1013.9mb 39f
7:40pm 9 15 mph 1014.2mb 39f
7:30pm 8 15 mph 1014.2mb 40f
7:20pm 11 16 mph 1013.5mb 39f
7:10pm 10 15 mph 1014.2mb 40f
7:00pm 9 14 mph 1014.2mb 40f
6:50pm 9 15 mph 1013.9mb 40f
6:40pm 9 14 mph 1013.5mb 41f
6:30pm 9 15 mph 1014.2mb 40f
6:20pm 9 11 mph 1013.9mb 42f
6:10pm 7 10 mph 1013.5mb 41f
6:00pm 6 11 mph 1013.5mb 41f
5:50pm 7 11 mph 1014.2mb 40f
5:40pm 9 15 mph 1014.2mb 40f
5:30pm 8 16 mph 1013.5mb 40f
5:20pm 9 15 mph 1014.2mb 40f
5:10pm 8 13 mph 1014.2mb 40f
11:00am 5 7 mph 1015.2mb 43f
10:50am 2 6 mph 1014.9mb 42f
10:40am 3 6 mph 1015.2mb 42f
10:30am 6
mph
1015.6mb 41f
10:20am 3 5 mph 1014.9mb 42f
10:10am 3
mph
1015.9mb 42f
7:00am 2 3 mph 1014.6mb 40f
6:50am 1 6 mph 1013.9mb 40f
6:40am 5 6 mph 1013.9mb 40f
6:30am 2 3 mph 1014.2mb 41f
6:20am 3 5 mph 1013.2mb 41f
6:10am  -  2 mph 1013.2mb 42f
6:00am  -  3 mph 1013.5mb 41f
5:50am  -  1 mph 1013.2mb 42f
5:40am  -  1 mph 1012.5mb 42f
5:30am  -  2 mph 1013.2mb 42f
5:20am 2 3 mph 1013.5mb 43f
5:10am 2 3 mph 1013.2mb 44f
5:00am  -  5 mph 1012.5mb 44f
4:50am 3 5 mph 1013.5mb 43f
4:40am 3 5 mph 1013.5mb 43f
4:30am 3 5 mph 1012.9mb 43f
4:20am 5 6 mph 1012.9mb 43f
4:10am 1 5 mph 1013.2mb 43f
4:00am 5 7 mph 1013.2mb 43f
3:50am 5 6 mph 1012.5mb 43f
3:40am 5 8 mph 1012.9mb 43f
3:30am 5 7 mph 1013.2mb 43f
3:20am 5 7 mph 1013.2mb 42f
3:10am 6 7 mph 1012.9mb 43f
3:00am 2 3 mph 1013.2mb 43f
2:50am 2 7 mph 1012.9mb 43f
2:40am 6 7 mph 1012.5mb 42f
2:30am 3 6 mph 1012.9mb 42f
2:20am 3 6 mph 1012.9mb 42f
2:10am 2 11 mph 1011.9mb 43f